Big Rapids, MI

9:24 PM EST on February 18, 2018 (GMT -0500)
Roben-Hood

Weather History for KRQB - October, 2012

Change the Weather History Date:

Tuesday, October 30, 2012

  Actual Average Record
Temperature  
Mean Temperature 39 °F -  
Max Temperature 41 °F 53 °F 75 °F (1999)
Min Temperature 37 °F 31 °F 16 °F (1980)
Degree Days  
Heating Degree Days 26    
Moisture  
Dew Point 31 °F    
Average Humidity 74    
Maximum Humidity 87    
Minimum Humidity 41    
Precipitation  
Precipitation 0.00 in - - ()
Sea Level Pressure  
Sea Level Pressure 29.70 in    
Wind  
Wind Speed 19 mph (North)    
Max Wind Speed 28 mph    
Max Gust Speed 34 mph    
Visibility 9 miles    
Events Rain , Snow    
Averages and records for this station are not official NWS values.
T = Trace of Precipitation, MM = Missing Value Source: NWS Daily Summary

Daily Weather History Graph

Daily Weather History Graph

Search for Another Location

Airport or City:

Trip Planner

Search our weather history database for the weather conditions in past years. The results will help you decide how hot, cold, wet, or windy it might be!

Date:

Astronomy

Oct. 30, 2012 Rise Set
Actual Time 8:15 AM EDT 6:34 PM EDT
Civil Twilight 7:46 AM EDT 7:04 PM EDT
Nautical Twilight 7:12 AM EDT 7:38 PM EDT
Astronomical Twilight 6:38 AM EDT 8:11 PM EDT
Moon 7:01 PM EDT (10/30) 9:04 AM EDT (10/30)
Length of Visible Light 11h 18m
Length of Day
10h 18m
Full, 99% of the Moon is Illuminated
Oct 30
Full
Nov 6
Last Quarter
Nov 13
New
Nov 20
First Quarter
Nov 28
Full

Hourly Weather History & Observations

Time (EDT) Temp. Windchill Dew Point Humidity Pressure Visibility Wind Dir Wind Speed Gust Speed Precip Events Conditions
12:14 AM 41.4 °F 31.6 °F 19.0 °F 41% 29.91 in 10.0 mi North 23.0 mph 31.1 mph N/A   Clear
12:35 AM 41.4 °F 32.7 °F 19.6 °F 42% 29.90 in 10.0 mi North 18.4 mph 29.9 mph N/A   Clear
12:54 AM 41.4 °F 32.1 °F 19.9 °F 42% 29.89 in 10.0 mi North 20.7 mph 34.5 mph N/A   Clear
1:14 AM 41.2 °F 32.4 °F 21.0 °F 45% 29.87 in 10.0 mi North 18.4 mph 29.9 mph N/A   Clear
1:35 AM 41.2 °F 32.1 °F 21.2 °F 45% 29.86 in 10.0 mi North 19.6 mph 25.3 mph N/A   Clear
1:54 AM 41.0 °F 32.8 °F 21.9 °F 47% 29.85 in 10.0 mi North 16.1 mph 29.9 mph N/A   Clear
2:14 AM 40.6 °F 30.9 °F 22.8 °F 49% 29.84 in 10.0 mi North 21.9 mph 31.1 mph N/A   Clear
2:35 AM 40.3 °F 31.3 °F 23.9 °F 52% 29.83 in 10.0 mi North 18.4 mph 26.5 mph N/A   Scattered Clouds
2:54 AM 40.3 °F 31.3 °F 24.4 °F 53% 29.82 in 10.0 mi North 18.4 mph 31.1 mph N/A   Scattered Clouds
3:14 AM 40.3 °F 30.7 °F 25.0 °F 54% 29.81 in 10.0 mi North 20.7 mph 31.1 mph N/A   Scattered Clouds
3:54 AM 40.1 °F 30.7 °F 25.7 °F 56% 29.80 in 10.0 mi North 19.6 mph 27.6 mph N/A   Overcast
4:14 AM 40.1 °F 30.7 °F 26.6 °F 59% 29.79 in 10.0 mi North 19.6 mph 28.8 mph N/A   Overcast
4:35 AM 39.9 °F 30.5 °F 27.7 °F 62% 29.77 in 10.0 mi North 19.6 mph 32.2 mph N/A   Overcast
4:54 AM 39.6 °F 30.0 °F 28.4 °F 64% 29.76 in 10.0 mi North 19.6 mph 31.1 mph N/A   Overcast
5:14 AM 39.4 °F 29.5 °F 29.1 °F 67% 29.76 in 10.0 mi North 20.7 mph 34.5 mph N/A   Overcast
5:35 AM 38.8 °F 28.5 °F 30.0 °F 71% 29.76 in 10.0 mi North 21.9 mph 33.4 mph N/A   Unknown
5:54 AM 38.7 °F 29.1 °F 30.6 °F 73% 29.75 in 10.0 mi North 18.4 mph 28.8 mph N/A   Unknown
6:15 AM 38.3 °F 28.4 °F 30.9 °F 75% 29.75 in 10.0 mi North 19.6 mph 31.1 mph N/A Rain Light Rain
6:34 AM 38.3 °F 27.8 °F 30.7 °F 74% 29.74 in 10.0 mi North 21.9 mph 32.2 mph N/A   Unknown
6:54 AM 38.3 °F 28.1 °F 30.9 °F 75% 29.74 in 10.0 mi North 20.7 mph 31.1 mph N/A   Overcast
7:15 AM 37.9 °F 27.1 °F 30.7 °F 75% 29.73 in 10.0 mi North 23.0 mph 28.8 mph N/A Snow Light Snow
7:34 AM 37.6 °F 27.1 °F 30.9 °F 77% 29.73 in 10.0 mi NNW 20.7 mph 31.1 mph N/A Snow Light Snow
7:55 AM 37.6 °F 26.6 °F 30.6 °F 76% 29.72 in 10.0 mi North 23.0 mph 32.2 mph N/A   Overcast
8:14 AM 37.4 °F 26.9 °F 30.4 °F 76% 29.72 in 10.0 mi North 20.7 mph 32.2 mph N/A Snow Light Snow
8:34 AM 37.6 °F 26.9 °F 30.7 °F 76% 29.71 in 10.0 mi North 21.9 mph 32.2 mph N/A Rain Light Rain
8:55 AM 37.6 °F 27.1 °F 30.7 °F 76% 29.71 in 10.0 mi North 20.7 mph 33.4 mph N/A Rain Light Rain
9:14 AM 38.1 °F 27.9 °F 30.9 °F 75% 29.70 in 10.0 mi NNW 20.7 mph 32.2 mph N/A Snow Light Snow
9:34 AM 38.5 °F 29.2 °F 30.9 °F 74% 29.69 in 10.0 mi North 17.3 mph 29.9 mph N/A   Overcast
9:55 AM 38.7 °F 28.6 °F 31.3 °F 75% 29.68 in 10.0 mi North 20.7 mph 31.1 mph N/A   Unknown
10:14 AM 38.5 °F 27.8 °F 31.3 °F 75% 29.67 in 10.0 mi North 23.0 mph 31.1 mph N/A   Unknown
10:34 AM 38.5 °F 26.9 °F 31.6 °F 76% 29.66 in 10.0 mi North 27.6 mph 33.4 mph N/A   Overcast
10:55 AM 38.7 °F 28.3 °F 32.0 °F 77% 29.66 in 10.0 mi North 21.9 mph 34.5 mph N/A   Overcast
11:14 AM 38.8 °F 29.4 °F 32.0 °F 76% 29.66 in 10.0 mi North 18.4 mph 29.9 mph N/A   Unknown
11:35 AM 38.8 °F 28.5 °F 32.0 °F 76% 29.66 in 10.0 mi North 21.9 mph 33.4 mph N/A   Overcast
11:54 AM 38.8 °F 29.4 °F 32.4 °F 78% 29.66 in 10.0 mi North 18.4 mph 31.1 mph N/A   Overcast
12:14 PM 38.8 °F 29.4 °F 33.1 °F 80% 29.67 in 7.0 mi North 18.4 mph 26.5 mph N/A Rain Light Rain
12:35 PM 39.0 °F 29.9 °F 33.4 °F 80% 29.66 in 7.0 mi North 17.3 mph 24.2 mph N/A   Overcast
12:54 PM 39.0 °F 29.6 °F 34.0 °F 82% 29.66 in 4.0 mi North 18.4 mph 25.3 mph N/A   Haze
1:14 PM 39.2 °F 30.2 °F 34.5 °F 83% 29.66 in 4.0 mi North 17.3 mph 24.2 mph N/A   Overcast
1:35 PM 39.6 °F 29.0 °F 35.2 °F 85% 29.64 in 3.0 mi North 24.2 mph 29.9 mph N/A   Haze
1:54 PM 39.7 °F 31.2 °F 35.1 °F 83% 29.65 in 3.0 mi North 16.1 mph 28.8 mph N/A   Haze
2:15 PM 40.1 °F 31.6 °F 34.9 °F 82% 29.64 in 5.0 mi North 16.1 mph 28.8 mph N/A   Haze
2:34 PM 40.1 °F 31.6 °F 34.9 °F 82% 29.64 in 7.0 mi North 16.1 mph 23.0 mph N/A   Overcast
2:54 PM 40.1 °F 31.0 °F 34.7 °F 81% 29.63 in 7.0 mi North 18.4 mph 27.6 mph N/A   Overcast
3:15 PM 40.3 °F 31.6 °F 34.3 °F 79% 29.63 in 10.0 mi North 17.3 mph 25.3 mph N/A   Overcast
3:34 PM 40.3 °F 30.7 °F 34.5 °F 80% 29.63 in 7.0 mi North 20.7 mph 26.5 mph N/A   Overcast
3:54 PM 39.7 °F 30.6 °F 34.3 °F 81% 29.63 in 5.0 mi North 18.4 mph 24.2 mph N/A   Haze
4:14 PM 40.1 °F 31.0 °F 34.3 °F 80% 29.63 in 7.0 mi North 18.4 mph - N/A   Unknown
4:34 PM 40.1 °F 31.0 °F 33.8 °F 78% 29.63 in 10.0 mi North 18.4 mph 25.3 mph N/A   Overcast
4:55 PM 40.1 °F 31.0 °F 33.3 °F 77% 29.63 in 10.0 mi North 18.4 mph 26.5 mph N/A   Overcast
5:14 PM 40.1 °F 30.5 °F 33.3 °F 77% 29.63 in 10.0 mi North 20.7 mph 28.8 mph N/A   Overcast
5:34 PM 40.1 °F 31.6 °F 33.1 °F 76% 29.63 in 10.0 mi North 16.1 mph 24.2 mph N/A Rain Light Rain
5:55 PM 39.6 °F 32.1 °F 33.3 °F 78% 29.63 in 10.0 mi North 12.7 mph 24.2 mph N/A   Overcast
6:14 PM 39.4 °F 30.7 °F 33.4 °F 79% 29.63 in 10.0 mi North 16.1 mph 25.3 mph N/A   Unknown
6:34 PM 39.2 °F 29.8 °F 33.4 °F 80% 29.64 in 10.0 mi North 18.4 mph 25.3 mph N/A   Overcast
6:55 PM 39.2 °F 30.5 °F 33.3 °F 79% 29.64 in 10.0 mi North 16.1 mph 25.3 mph N/A   Overcast
7:14 PM 38.8 °F 30.4 °F 33.4 °F 81% 29.64 in 10.0 mi North 15.0 mph 21.9 mph N/A   Overcast
7:34 PM 38.7 °F 30.1 °F 33.8 °F 83% 29.64 in 7.0 mi North 15.0 mph 23.0 mph N/A   Overcast
7:55 PM 38.5 °F 29.9 °F 33.8 °F 83% 29.65 in 5.0 mi North 15.0 mph 21.9 mph N/A   Haze
8:14 PM 38.5 °F 30.3 °F 34.0 °F 84% 29.65 in 7.0 mi NNW 13.8 mph - N/A   Overcast
8:35 PM 38.3 °F 30.9 °F 34.5 °F 86% 29.65 in 5.0 mi North 11.5 mph 19.6 mph N/A   Overcast
8:55 PM 38.3 °F 29.7 °F 34.2 °F 85% 29.64 in 10.0 mi NNW 15.0 mph 18.4 mph N/A   Overcast
9:14 PM 38.3 °F 31.4 °F 34.0 °F 84% 29.64 in 10.0 mi NNW 10.4 mph - N/A   Overcast
9:35 PM 38.3 °F 30.5 °F 33.3 °F 82% 29.65 in 10.0 mi NNW 12.7 mph 23.0 mph N/A   Overcast
9:55 PM 38.3 °F 30.5 °F 33.3 °F 82% 29.64 in 10.0 mi North 12.7 mph 17.3 mph N/A   Unknown
10:14 PM 38.3 °F 31.4 °F 33.3 °F 82% 29.64 in 10.0 mi North 10.4 mph - N/A Rain Light Rain
10:35 PM 37.9 °F 30.5 °F 33.4 °F 84% 29.64 in 10.0 mi North 11.5 mph - N/A   Overcast
10:54 PM 38.1 °F 29.8 °F 33.1 °F 82% 29.64 in 10.0 mi North 13.8 mph - N/A   Overcast
11:14 PM 37.6 °F 30.5 °F 34.0 °F 87% 29.64 in 7.0 mi NNW 10.4 mph - N/A   Overcast
11:35 PM 37.6 °F 29.6 °F 33.8 °F 86% 29.63 in 10.0 mi NNW 12.7 mph 19.6 mph N/A   Overcast
11:54 PM 37.4 °F 28.9 °F 33.8 °F 87% 29.63 in 10.0 mi NNW 13.8 mph - N/A   Overcast